Weather in Novaya Mayachka

Ukraine / Kherson District     46°36′12″N   33°13′41″E
temp.,
°C
wind,
m/s
gust,
m/s
humid.,
%
clouds,
%
prec.,
mm/h
press.,
hPa
HPBL,
m
23 april, fri
fri2300:00+8s49910 0.0 1021173
03:00+8s410925 0.0 1021207
06:00+8s5128793 0.0 1020264
09:00+13ssw71165100 0.0 1020572
12:00+16ssw8950100 0.0 10191088
15:00+15ssw81055100 0.0 1019898
18:00+13ssw6966100 0.0 1017577
21:00+10sw4984100 0.0 1018303
24 april, sat
sat2400:00+9wnw4793100 0.1 1017254
03:00+7nnw510874 0.4 1019438
06:00+4nw38940 0.0 1020186
09:00+10wnw57610 0.0 1021681
12:00+13wnw68372 0.0 10221860
15:00+15w893599 0.0 10212596
18:00+13wnw5743100 0.0 10211972
21:00+8n34615 0.0 102447
25 april, sun
sun2500:00+6nw226057 0.0 102410
03:00+5ne11595 0.0 102310
06:00+4ene115970 0.0 102210
09:00+10ese224494 0.0 1022455
12:00+13ese3236100 0.0 10211484
15:00+14se2136100 0.0 10191790
18:00+12sse5446100 0.0 1018608
21:00+8sse3658100 0.0 1019114
26 april, mon
mon2600:00+6s225865 0.0 101915
03:00+5sw226273 0.0 101810
06:00+5nw226738 0.0 101711
09:00+10nw226082 0.0 1017642
12:00+6nnw5689100 0.1 1018455
15:00+10n466291 0.1 10181263
18:00+11wnw25485 0.0 10171489
21:00+7wsw346148 0.0 101849
27 april, tue
tue2700:00+5sw337043 0.0 101818
03:00+5ssw2274100 0.0 101712
06:00+5s2285100 0.0 101722
09:00+9s2366100 0.1 1016628
12:00+7ssw4486100 1.9 1016855
15:00+6nne6892100 4.4 1016518
18:00+7n4575100 0.0 1018926
21:00+4n339396 0.0 102046